METEOR 2-11 DEB, 40706

Orbit data source: Space-Track

METEOR 2-11 DEB, 40706 is space debris in LEO originally from a launch on Thu, 05 Jul 1984 UTC launched from the Plesetsk Missile And Space Complex (PKMTR). Debris objects in space refer to the collection of defunct objects orbiting the Earth. Examples of debris include non-operational satellites, rocket bodies, and fragments generated from explosions, collisions, or faulty payload assembly.

Loading next visibility...
Identifier
40706, 1984-072H
Orbit
LEO
Country
Flag of CISCIS
Related business
Manufacturer
Unknown
Mission
Spacecraft
Bus & Motor
Unknown
Mass
Unknown
Launch date (UTC)
1984-07-05 (42 years ago)
Launch vehicle
Unknown
Launch site
Plesetsk Missile And Space Complex (PKMTR)
Object type
Payload
Rocket body
Debris
Shape & HBR
Unknown shape, 0.1 m
Radar Cross Section
Small (<0.1 m²)

Expand to show TLE details & history
Last TLE update: 5 days ago

TLE from 5 days ago
0 METEOR 2-11 DEB
1 40706U 84072H   26204.80686757  .00003160  00000-0  21956-2 0  9994
2 40706  82.5229 338.5110 0014392 211.6743 148.3560 13.98497179594329
Epoch: 2026-07-23T19:21Z
TLE epoch observation values (Epoch: 2026-07-23T19:21:53.358Z)
Latitude
-0.00006°
Longitude
106.49611°
Altitude
910.847 km
Speed
7.392 km/s
True Right ascension
22h 34m 02s
True Declination
0° 00' 00"
Sunlit
Object was in full shadow at epoch
Visualization orbit readout
Latitude
Unknown
Longitude
Unknown
Altitude
Unknown
Speed
Unknown
Apparent Right ascension
Unknown
Apparent Declination
Unknown
Sunlit
N/A
Visualization observer readout
Local Sidereal Time
06:25:22
Azimuth
Unknown
Elevation
Unknown
Doppler factor
Unknown
Orbital elements
Apogee altitude
906.606 km
Perigee altitude
885.668 km
Semi-major axis
7,274.274 km
Eccentricity
0.00144
Inclination
82.5229°
RAAN
338.511°
Arg. of periapsis
211.6743°
True anomaly
148.44239°
Mean anomaly
148.356°
Eccentric anomaly
148.39921°
Mean motion
3.49831 °/min
Orbital period
102.91 mins
BSTAR
0.0021956
Loading maneuver chart data...
Computing Atmospheric mass density...
Loading historical data...
Loading historical data...
Loading historical data...
Loading historical data...
Loading historical data...
Loading historical data...
Loading historical data...

Documentation

Showing up to 5 results
|